sat.trackr.live / text

‹ back to catalog

UNKNOWN

NORAD 81893

UNKNOWN UNKNOWN UNKNOWN

§ Identity

Operator
Country
Launch date
Launch site
Launch vehicle
Mass (kg)
RCS (m²)

External: N2YO · Heavens-Above

§ Orbital elements

Epoch: 2026-05-20T06:38:03.982272Z

Period
104.57 min
Inclination
100.0581°
Eccentricity
0.0019151
Mean motion
13.77052099 rev/d
Perigee alt
960.3 km
Apogee alt
988.4 km
Semi-major
7,352.5 km
B*
7.1142e-4
RAAN
137.4963°
Arg perigee
217.8604°
Mean anomaly
142.1198°
Rev number
62,589

§ Raw data

UNKNOWN1 81893U          26140.27643498  .00000654  00000+0  71142-3 0  99972 81893 100.0581 137.4963 0019151 217.8604 142.1198 13.77052099625893

JSON: /api/v1/satellites/81893 · /tle

For live sub-satellite position, see the globe view (requires WebGL).

§ Visibility from observer

Set your observer location to see the next 7 days of passes ≥ 10°. The values pass through the URL so the page stays shareable.

No JS? Fill the form by hand. The geolocation button needs JavaScript.